CW4629 Weather Reports


time (UTC)temp
C
wind
direction
speed
KPH
gust
KPH
rain 1hr
cm
rain 24hr
cm
rain mn
cm
humidity
%
barometer
mb
20260831015311 32 225 0.0 0.0 0.00 0.00 0.00 22 1013.0
20260831014329 33 292 0.0 0.0 0.00 0.00 0.00 22 1012.9
20260831014213 33 292 0.0 1.6 0.00 0.00 0.00 22 1012.8
20260831013211 33 270 0.0 1.6 0.00 0.00 0.00 21 1012.8
20260831012228 33 231 8.0 11.3 0.00 0.00 0.00 21 1012.8
20260831011213 33 240 6.4 12.9 0.00 0.00 0.00 21 1012.9
20260831010310 34 285 8.0 11.3 0.00 0.00 0.00 20 1012.8
20260831005410 34 267 8.0 11.3 0.00 0.00 0.00 20 1012.9
20260831004427 34 223 9.7 14.5 0.00 0.00 0.00 21 1012.8
20260831003412 34 287 8.0 14.5 0.00 0.00 0.00 22 1013.0
20260831001429 35 247 9.7 16.1 0.00 0.00 0.00 21 1013.0
20260831000429 35 264 9.7 17.7 0.00 0.00 0.00 21 1013.1
20260830234428 34 243 6.4 9.7 0.00 0.00 0.00 21 1012.9
20260830232611 33 238 11.3 25.7 0.00 0.00 0.00 22 1012.9
20260830231613 33 236 14.5 20.9 0.00 0.00 0.00 22 1012.9
20260830230712 33 261 6.4 14.5 0.00 0.00 0.00 21 1013.1
20260830225726 33 256 11.3 17.7 0.00 0.00 0.00 22 1013.1
20260830222813 34 250 8.0 14.5 0.00 0.00 0.00 21 1013.5
20260830221828 34 250 9.7 17.7 0.00 0.00 0.00 22 1013.7
20260830220826 34 239 8.0 12.9 0.00 0.00 0.00 21 1013.7
20260830215811 34 234 14.5 20.9 0.00 0.00 0.00 21 1013.8
20260830214814 34 247 14.5 22.5 0.00 0.00 0.00 22 1014.0
20260830213829 34 215 16.1 24.1 0.00 0.00 0.00 22 1014.2
20260830212814 34 247 12.9 19.3 0.00 0.00 0.00 22 1014.0
20260830211911 35 209 17.7 25.7 0.00 0.00 0.00 22 1014.3
20260830210911 35 273 11.3 19.3 0.00 0.00 0.00 23 1014.2
20260830205912 35 248 14.5 22.5 0.00 0.00 0.00 21 1014.3
20260830204911 35 244 14.5 25.7 0.00 0.00 0.00 22 1014.5
20260830203911 35 238 9.7 14.5 0.00 0.00 0.00 22 1014.4
20260830202913 36 241 19.3 27.4 0.00 0.00 0.00 21 1014.5
20260830201012 36 201 14.5 20.9 0.00 0.00 0.00 21 1014.6
20260830200027 37 183 8.0 17.7 0.00 0.00 0.00 21 1014.7
20260830195013 36 209 6.4 11.3 0.00 0.00 0.00 22 1014.7
20260830193110 36 197 14.5 24.1 0.00 0.00 0.00 21 1014.9
20260830192128 36 193 14.5 22.5 0.00 0.00 0.00 20 1015.1
20260830191111 36 165 11.3 32.2 0.00 0.00 0.00 22 1014.9
20260830190127 36 176 6.4 11.3 0.00 0.00 0.00 22 1015.3
20260830185210 35 196 3.2 4.8 0.00 0.00 0.00 22 1015.3
20260830184212 35 221 14.5 24.1 0.00 0.00 0.00 23 1015.5
20260830183229 35 207 16.1 27.4 0.00 0.00 0.00 23 1015.5
20260830182312 35 210 11.3 16.1 0.00 0.00 0.00 23 1015.4
20260830181312 35 236 11.3 19.3 0.00 0.00 0.00 23 1015.5
20260830180326 35 209 4.8 8.0 0.00 0.00 0.00 23 1015.7
20260830175412 34 68 6.4 11.3 0.00 0.00 0.00 24 1015.8
20260830174510 35 38 8.0 11.3 0.00 0.00 0.00 24 1015.9
20260830172612 34 106 3.2 6.4 0.00 0.00 0.00 26 1015.9
20260830171711 33 62 3.2 6.4 0.00 0.00 0.00 26 1016.0
20260830170810 33 60 8.0 11.3 0.00 0.00 0.00 25 1015.9
20260830165826 33 146 1.6 4.8 0.00 0.00 0.00 27 1015.9
20260830164810 32 135 0.0 3.2 0.00 0.00 0.00 28 1015.9
20260830163825 32 112 6.4 9.7 0.00 0.00 0.00 28 1015.9
20260830162827 31 132 1.6 6.4 0.00 0.00 0.00 30 1016.0
20260830161814 31 104 9.7 16.1 0.00 0.00 0.00 31 1015.9
20260830160813 31 88 8.0 12.9 0.00 0.00 0.00 32 1015.7
20260830155910 30 110 8.0 11.3 0.00 0.00 0.00 33 1015.9
20260830154927 30 88 9.7 14.5 0.00 0.00 0.00 33 1015.9
20260830154010 30 110 9.7 17.7 0.00 0.00 0.00 34 1016.0
20260830152127 29 112 6.4 14.5 0.00 0.00 0.00 36 1015.9
20260830151128 29 105 6.4 9.7 0.00 0.00 0.00 37 1015.9
20260830150210 29 81 8.0 19.3 0.00 0.00 0.00 37 1016.0
20260830145309 28 87 8.0 17.7 0.00 0.00 0.00 38 1016.0
20260830145211 28 93 6.4 14.5 0.00 0.00 0.00 38 1016.0
20260830144210 28 119 3.2 11.3 0.00 0.00 0.00 39 1015.9
20260830143211 28 119 3.2 4.8 0.00 0.00 0.00 40 1015.8
20260830142309 27 99 8.0 12.9 0.00 0.00 0.00 41 1015.9
20260830141309 27 116 3.2 4.8 0.00 0.00 0.00 43 1015.6
20260830141226 27 99 3.2 6.4 0.00 0.00 0.00 43 1015.7
20260830140312 27 97 6.4 9.7 0.00 0.00 0.00 43 1015.6
20260830135410 26 114 6.4 9.7 0.00 0.00 0.00 44 1015.8
20260830133427 25 202 0.0 0.0 0.00 0.00 0.00 47 1015.7
20260830132512 25 202 1.6 4.8 0.00 0.00 0.00 48 1015.4
20260830131510 25 180 0.0 0.0 0.00 0.00 0.00 47 1015.2
20260830130525 25 180 3.2 6.4 0.00 0.00 0.00 47 1015.1
20260830125511 25 202 1.6 1.6 0.00 0.00 0.00 46 1015.1
20260830123610 26 163 1.6 4.8 0.00 0.00 0.00 43 1014.7
20260830122612 26 157 1.6 4.8 0.00 0.00 0.00 43 1014.7
20260830121626 26 112 1.6 1.6 0.00 0.00 0.00 43 1014.5
20260830120710 26 133 3.2 6.4 0.00 0.00 0.00 44 1014.5
20260830115712 26 157 1.6 3.2 0.00 0.00 0.00 44 1014.4
20260830113711 27 112 1.6 4.8 0.00 0.00 0.00 43 1014.1
20260830112709 27 112 0.0 1.6 0.00 0.00 0.00 42 1014.2
20260830111728 27 166 1.6 4.8 0.00 0.00 0.00 42 1014.3
20260830110811 27 119 3.2 4.8 0.00 0.00 0.00 41 1014.5
20260830105825 27 135 1.6 3.2 0.00 0.00 0.00 42 1014.2
20260830104826 27 180 1.6 4.8 0.00 0.00 0.00 41 1014.2
20260830103814 28 156 3.2 6.4 0.00 0.00 0.00 40 1014.1
20260830102827 28 157 3.2 6.4 0.00 0.00 0.00 38 1013.9
20260830101826 28 99 8.0 12.9 0.00 0.00 0.00 38 1013.9
20260830100910 28 113 4.8 9.7 0.00 0.00 0.00 39 1013.8
20260830095011 28 119 6.4 8.0 0.00 0.00 0.00 38 1013.7
20260830093010 29 135 0.0 0.0 0.00 0.00 0.00 35 1013.4
20260830092013 29 90 1.6 3.2 0.00 0.00 0.00 36 1013.2
20260830091011 29 66 6.4 11.3 0.00 0.00 0.00 35 1013.2
20260830090010 29 84 3.2 6.4 0.00 0.00 0.00 35 1013.2
20260830085027 29 62 4.8 8.0 0.00 0.00 0.00 34 1013.1
20260830084025 29 180 0.0 4.8 0.00 0.00 0.00 35 1013.4
20260830083110 29 247 4.8 6.4 0.00 0.00 0.00 33 1013.4
20260830082110 30 104 6.4 11.3 0.00 0.00 0.00 33 1013.3
20260830080211 29 112 3.2 4.8 0.00 0.00 0.00 29 1013.5
20260830075309 29 182 6.4 9.7 0.00 0.00 0.00 29 1013.7
20260830074311 29 157 1.6 3.2 0.00 0.00 0.00 27 1013.6
20260830073327 29 106 1.6 4.8 0.00 0.00 0.00 27 1013.3
20260830071327 30 318 0.0 3.2 0.00 0.00 0.00 27 1013.3
20260830070409 30 90 3.2 4.8 0.00 0.00 0.00 27 1013.3
20260830065425 30 90 4.8 6.4 0.00 0.00 0.00 26 1013.3
20260830064408 29 283 0.0 0.0 0.00 0.00 0.00 28 1013.3
20260830063411 29 45 0.0 0.0 0.00 0.00 0.00 29 1013.0
20260830062411 28 255 1.6 6.4 0.00 0.00 0.00 30 1013.1
20260830062313 28 247 6.4 9.7 0.00 0.00 0.00 30 1013.1
20260830061311 28 135 0.0 0.0 0.00 0.00 0.00 30 1013.1
20260830060312 29 135 0.0 0.0 0.00 0.00 0.00 29 1013.0
20260830055320 30 135 0.0 0.0 0.00 0.00 0.00 27 1013.0
20260830054320 30 135 0.0 0.0 0.00 0.00 0.00 26 1013.1
20260830053336 31 135 3.2 4.8 0.00 0.00 0.00 25 1013.1
20260830052337 31 270 0.0 0.0 0.00 0.00 0.00 25 1013.1
20260830051321 31 282 1.6 3.2 0.00 0.00 0.00 25 1013.1
20260830050321 31 292 1.6 3.2 0.00 0.00 0.00 24 1012.9
20260830045419 31 247 1.6 3.2 0.00 0.00 0.00 25 1013.1
20260830043434 32 247 0.0 0.0 0.00 0.00 0.00 23 1013.1
20260830043318 32 247 0.0 0.0 0.00 0.00 0.00 23 1013.0
20260830042321 33 247 0.0 1.6 0.00 0.00 0.00 22 1012.9
20260830041321 33 247 1.6 3.2 0.00 0.00 0.00 22 1013.0
20260830040337 33 248 6.4 11.3 0.00 0.00 0.00 22 1012.9
20260830035420 33 247 3.2 4.8 0.00 0.00 0.00 21 1012.8
20260830034419 33 248 6.4 9.7 0.00 0.00 0.00 21 1012.7
20260830033420 33 223 8.0 12.9 0.00 0.00 0.00 21 1012.5
20260830032436 34 226 4.8 9.7 0.00 0.00 0.00 20 1012.4
20260830031419 34 238 6.4 9.7 0.00 0.00 0.00 20 1012.2
20260830030420 35 234 6.4 12.9 0.00 0.00 0.00 18 1012.0
20260830024435 35 238 8.0 14.5 0.00 0.00 0.00 19 1011.6
20260830023520 35 222 8.0 16.1 0.00 0.00 0.00 18 1011.6
20260830022619 35 208 9.7 16.1 0.00 0.00 0.00 18 1011.5
20260830021619 35 246 8.0 11.3 0.00 0.00 0.00 17 1011.7
20260830020619 36 223 9.7 16.1 0.00 0.00 0.00 18 1011.6